When you browse on this site, cookies collect data to enhance your experience and personalize the content and advertising you see.
Visit our Privacy Policy to learn more. By continuing to use the site, you agree to this use of cookies and data.
  • en France
  • Liste des pays
  • À 7 jours
  • Température de l'eau
  • Carte météo
  • Widgets météo
  • user-avatar
    Se connecter

    Météo par heure à Nuwebie

    Ce jour, 18 Novembre, Lundi

    Heure Température Précipitation Vent Pression Humidité
    00:00 +15°C° 0 mm 2 m/s 691 mmHg 69%
    01:00 +14°C° 0 mm 2 m/s 691 mmHg 69%
    02:00 +14°C° 0 mm 2 m/s 690 mmHg 75%
    03:00 +13°C° 0 mm 2 m/s 691 mmHg 73%
    04:00 +13°C° 0 mm 2 m/s 691 mmHg 71%
    05:00 +13°C° 0 mm 2 m/s 691 mmHg 69%
    06:00 +14°C° 0 mm 2 m/s 691 mmHg 63%
    07:00 +15°C° 0 mm 2 m/s 692 mmHg 57%
    08:00 +16°C° 0 mm 2 m/s 692 mmHg 50%
    09:00 +17°C° 0 mm 2 m/s 692 mmHg 45%
    10:00 +18°C° 0 mm 3 m/s 693 mmHg 41%
    11:00 +20°C° 0 mm 3 m/s 693 mmHg 37%
    12:00 +20°C° 0 mm 3 m/s 693 mmHg 35%
    13:00 +21°C° 0 mm 4 m/s 692 mmHg 32%
    14:00 +21°C° 0 mm 4 m/s 692 mmHg 30%
    15:00 +20°C° 0 mm 4 m/s 692 mmHg 31%
    16:00 +19°C° 0 mm 3 m/s 692 mmHg 33%
    17:00 +18°C° 0 mm 3 m/s 692 mmHg 34%
    18:00 +17°C° 0 mm 2 m/s 692 mmHg 35%
    19:00 +16°C° 0 mm 2 m/s 692 mmHg 36%
    20:00 +15°C° 0 mm 2 m/s 692 mmHg 38%
    21:00 +14°C° 0 mm 1 m/s 692 mmHg 37%
    22:00 +14°C° 0 mm 1 m/s 692 mmHg 37%
    23:00 +13°C° 0 mm 1 m/s 692 mmHg 37%

    Demain, 19 Novembre, Mardi

    Heure Température Précipitation Vent Pression Humidité
    00:00 +13°C° 0 mm 1 m/s 692 mmHg 38%
    01:00 +12°C° 0 mm 1 m/s 692 mmHg 38%
    02:00 +12°C° 0 mm 1 m/s 692 mmHg 38%
    03:00 +12°C° 0 mm 1 m/s 692 mmHg 39%
    04:00 +11°C° 0 mm 1 m/s 692 mmHg 40%
    05:00 +11°C° 0 mm 1 m/s 692 mmHg 41%
    06:00 +12°C° 0 mm 1 m/s 693 mmHg 36%
    07:00 +14°C° 0 mm 1 m/s 693 mmHg 32%
    08:00 +16°C° 0 mm 2 m/s 693 mmHg 28%
    09:00 +17°C° 0 mm 2 m/s 694 mmHg 26%
    10:00 +18°C° 0 mm 2 m/s 694 mmHg 25%
    11:00 +20°C° 0 mm 2 m/s 694 mmHg 23%
    12:00 +20°C° 0 mm 3 m/s 694 mmHg 21%
    13:00 +21°C° 0 mm 3 m/s 693 mmHg 20%
    14:00 +21°C° 0 mm 3 m/s 693 mmHg 18%
    15:00 +20°C° 0 mm 3 m/s 693 mmHg 21%
    16:00 +18°C° 0 mm 2 m/s 692 mmHg 24%
    17:00 +17°C° 0 mm 2 m/s 692 mmHg 26%
    18:00 +16°C° 0 mm 2 m/s 692 mmHg 28%
    19:00 +15°C° 0 mm 2 m/s 692 mmHg 29%
    20:00 +13°C° 0 mm 1 m/s 692 mmHg 31%
    21:00 +13°C° 0 mm 1 m/s 692 mmHg 32%
    22:00 +12°C° 0 mm 1 m/s 692 mmHg 34%
    23:00 +12°C° 0 mm 1 m/s 692 mmHg 35%

    Après-demain, 20 Novembre, Mercredi

    Heure Température Précipitation Vent Pression Humidité
    00:00 +11°C° 0 mm 1 m/s 692 mmHg 37%
    01:00 +11°C° 0 mm 1 m/s 692 mmHg 38%
    02:00 +10°C° 0 mm 1 m/s 691 mmHg 39%
    03:00 +10°C° 0 mm 1 m/s 691 mmHg 41%
    04:00 +10°C° 0 mm 1 m/s 691 mmHg 43%
    05:00 +9°C° 0 mm 1 m/s 691 mmHg 45%
    06:00 +11°C° 0 mm 1 m/s 692 mmHg 39%
    07:00 +13°C° 0 mm 1 m/s 693 mmHg 34%
    08:00 +15°C° 0 mm 1 m/s 693 mmHg 28%
    09:00 +17°C° 0 mm 2 m/s 694 mmHg 25%
    10:00 +18°C° 0 mm 2 m/s 694 mmHg 21%
    11:00 +20°C° 0 mm 2 m/s 694 mmHg 18%
    12:00 +20°C° 0 mm 3 m/s 694 mmHg 16%
    13:00 +21°C° 0 mm 3 m/s 693 mmHg 14%
    14:00 +22°C° 0 mm 3 m/s 693 mmHg 12%
    15:00 +20°C° 0 mm 3 m/s 693 mmHg 14%
    16:00 +17°C° 0 mm 2 m/s 692 mmHg 16%
    17:00 +15°C° 0 mm 2 m/s 692 mmHg 18%
    18:00 +14°C° 0 mm 2 m/s 692 mmHg 19%
    19:00 +13°C° 0 mm 1 m/s 692 mmHg 20%
    20:00 +12°C° 0 mm 1 m/s 692 mmHg 22%
    21:00 +12°C° 0 mm 1 m/s 692 mmHg 22%
    22:00 +11°C° 0 mm 1 m/s 692 mmHg 22%
    23:00 +11°C° 0 mm 1 m/s 692 mmHg 23%

    21 Novembre, Jeudi

    Heure Température Précipitation Vent Pression Humidité
    00:00 +10°C° 0 mm 1 m/s 692 mmHg 23%
    01:00 +10°C° 0 mm 1 m/s 692 mmHg 23%
    02:00 +9°C° 0 mm 1 m/s 691 mmHg 24%
    03:00 +9°C° 0 mm 1 m/s 691 mmHg 25%
    04:00 +9°C° 0 mm 1 m/s 691 mmHg 26%
    05:00 +8°C° 0 mm 1 m/s 691 mmHg 28%
    06:00 +11°C° 0 mm 1 m/s 692 mmHg 23%
    07:00 +13°C° 0 mm 1 m/s 693 mmHg 19%
    08:00 +16°C° 0 mm 1 m/s 693 mmHg 15%
    09:00 +18°C° 0 mm 1 m/s 694 mmHg 13%
    10:00 +20°C° 0 mm 1 m/s 694 mmHg 11%
    11:00 +21°C° 0 mm 2 m/s 694 mmHg 10%
    12:00 +21°C° 0 mm 2 m/s 693 mmHg 9%
    13:00 +23°C° 0 mm 2 m/s 693 mmHg 9%
    14:00 +23°C° 0 mm 2 m/s 693 mmHg 9%
    15:00 +21°C° 0 mm 1 m/s 692 mmHg 12%
    16:00 +19°C° 0 mm 1 m/s 692 mmHg 15%
    17:00 +14°C° 0 mm 0 m/s 691 mmHg 18%
    18:00 +13°C° 0 mm 0 m/s 691 mmHg 18%
    19:00 +12°C° 0 mm 0 m/s 691 mmHg 19%
    20:00 +12°C° 0 mm 0 m/s 691 mmHg 19%
    21:00 +11°C° 0 mm 0 m/s 691 mmHg 20%
    22:00 +11°C° 0 mm 0 m/s 691 mmHg 20%
    23:00 +10°C° 0 mm 0 m/s 691 mmHg 20%

    22 Novembre, Vendredi

    Heure Température Précipitation Vent Pression Humidité
    00:00 +10°C° 0 mm 0 m/s 691 mmHg 21%
    01:00 +10°C° 0 mm 0 m/s 691 mmHg 22%
    02:00 +9°C° 0 mm 0 m/s 690 mmHg 23%
    03:00 +9°C° 0 mm 0 m/s 690 mmHg 25%
    04:00 +9°C° 0 mm 0 m/s 690 mmHg 27%
    05:00 +9°C° 0 mm 0 m/s 690 mmHg 29%
    06:00 +12°C° 0 mm 0 m/s 691 mmHg 25%
    07:00 +14°C° 0 mm 0 m/s 692 mmHg 20%
    08:00 +19°C° 0 mm 1 m/s 693 mmHg 16%
    09:00 +20°C° 0 mm 1 m/s 693 mmHg 14%
    10:00 +21°C° 0 mm 1 m/s 693 mmHg 13%
    11:00 +23°C° 0 mm 1 m/s 693 mmHg 12%
    12:00 +23°C° 0 mm 1 m/s 692 mmHg 12%
    13:00 +24°C° 0 mm 2 m/s 692 mmHg 11%
    14:00 +25°C° 0 mm 2 m/s 692 mmHg 11%
    15:00 +21°C° 0 mm 2 m/s 691 mmHg 14%
    16:00 +19°C° 0 mm 2 m/s 691 mmHg 16%
    17:00 +17°C° 0 mm 2 m/s 691 mmHg 19%
    18:00 +16°C° 0 mm 2 m/s 691 mmHg 19%
    19:00 +15°C° 0 mm 2 m/s 691 mmHg 20%
    20:00 +14°C° 0 mm 2 m/s 691 mmHg 20%
    21:00 +14°C° 0 mm 2 m/s 691 mmHg 21%
    22:00 +13°C° 0 mm 2 m/s 691 mmHg 22%
    23:00 +12°C° 0 mm 2 m/s 691 mmHg 23%

    23 Novembre, Samedi

    Heure Température Précipitation Vent Pression Humidité
    00:00 +12°C° 0 mm 2 m/s 691 mmHg 23%
    01:00 +12°C° 0 mm 2 m/s 691 mmHg 24%
    02:00 +10°C° 0 mm 2 m/s 691 mmHg 24%
    03:00 +11°C° 0 mm 1 m/s 691 mmHg 24%
    04:00 +11°C° 0 mm 1 m/s 690 mmHg 23%
    05:00 +10°C° 0 mm 1 m/s 690 mmHg 23%
    06:00 +12°C° 0 mm 1 m/s 691 mmHg 20%
    07:00 +14°C° 0 mm 2 m/s 692 mmHg 18%
    08:00 +16°C° 0 mm 2 m/s 693 mmHg 15%
    09:00 +18°C° 0 mm 2 m/s 693 mmHg 15%
    10:00 +19°C° 0 mm 3 m/s 693 mmHg 15%
    11:00 +21°C° 0 mm 3 m/s 693 mmHg 15%
    12:00 +21°C° 0 mm 4 m/s 693 mmHg 17%
    13:00 +21°C° 0 mm 5 m/s 693 mmHg 18%
    14:00 +21°C° 0 mm 5 m/s 692 mmHg 20%
    15:00 +20°C° 0 mm 5 m/s 692 mmHg 26%
    16:00 +17°C° 0 mm 5 m/s 692 mmHg 32%
    17:00 +15°C° 0 mm 4 m/s 692 mmHg 38%
    18:00 +14°C° 0 mm 4 m/s 692 mmHg 45%
    19:00 +13°C° 0 mm 3 m/s 692 mmHg 52%
    20:00 +12°C° 0 mm 3 m/s 692 mmHg 59%
    21:00 +13°C° 0 mm 2 m/s 692 mmHg 63%
    22:00 +12°C° 0 mm 2 m/s 692 mmHg 68%
    23:00 +10°C° 0 mm 2 m/s 691 mmHg 72%
    Voir plus